Vertical_Velocity
-3 -6 -1 -3 -3 -2 -2 -5 -5 -3 -1 -1 2 0 -0 -2 -1 -1 -0 -1 -2 -3 -2 -3 2 -0 -1 -0 0 1 2 -5 -1 -1 -2 0 -6 -2 0 -1 -4 -14 11 -4 -2 -4 -3
-2 -3 -4 -0 -6 -4 -3 2 -6 -1 -3 -0 1 -0 3 -0 0 1 -0 -1 -0 -3 -2 0 -0 -0 0 0 -2 -2 -2 2 1 -4 -2 0 1 1 1 -7 -5 4 -6 -6 2 7 -0
-2 -6 -4 1 -3 2 -4 -1 -5 -0 2 1 2 2 -0 -1 2 1 0 0 2 -1 1 1 1 -0 -1 0 -0 2 1 -3 -2 -3 -3 2 -4 -3 -10 -5 -4 -8 -4 4 -5 7 -5
0 -1 -2 -2 0 -4 -2 -3 0 -6 -1 2 -0 -0 1 1 2 0 -0 1 2 1 1 -1 0 -1 0 -1 -0 0 -2 -0 -1 -6 -4 -2 1 -1 -0 -7 7 -7 -12 -3 25 5 3
-2 -5 -5 -1 -3 -2 -3 -2 -6 -4 -4 1 2 -0 -1 -0 1 0 -1 -0 1 -1 -2 -2 -2 -3 -1 -1 -2 -1 -3 -6 -7 -5 -1 -1 3 2 4 0 -4 5 -20 8 -15 13 5
-3 -6 -3 0 -2 -2 -3 -1 -6 -6 -3 -5 1 2 -1 -1 -1 -2 -2 -1 -1 -1 -2 -1 -3 -6 -3 -5 -4 -6 -6 -5 -3 -2 -3 11 8 1 4 -0 -9 2 -9 -13 -24 28 20
-3 0 -6 -4 -1 -7 -1 -0 -4 -2 -6 -3 -1 2 -1 -2 -1 -2 -2 -1 -1 -2 -2 -3 -3 -3 -5 -5 -4 1 -5 -5 2 -2 -1 -6 -1 -1 0 0 -12 -2 -3 -13 -5 7 -0
1 -2 -2 -3 -4 -0 -6 -1 -5 -1 -4 -4 -1 -0 -1 -1 -2 -1 -2 -2 -1 -0 1 -3 -4 -7 -4 -3 -9 -10 -3 -1 -3 -2 -5 -0 -6 -3 -6 -0 -4 -0 -4 -10 -4 4 27
-4 1 1 -2 -1 4 1 -6 -4 -9 -3 -4 -0 1 0 -0 -2 -2 -2 -3 -4 -4 -2 -0 -1 -2 -6 -6 -3 -8 -3 -6 -9 -5 -4 -4 4 -5 0 2 -3 1 -1 -7 -7 -2 1
2 -3 -1 -3 -1 -0 1 1 -4 -7 -7 -3 0 1 1 0 -1 -3 -2 -3 -3 -2 -1 0 -2 -3 -2 -9 -7 1 -2 -8 -1 -7 -2 6 -3 -1 -3 -3 -2 -3 -2 -7 -5 -3 -5
-3 -5 -0 -3 1 4 -1 1 1 -6 -0 -5 -1 1 2 -1 -1 -3 -1 -1 -0 -1 -5 -8 -3 -8 -11 -2 -1 -26 -16 -4 -6 1 -6 9 1 -5 -0 -1 -3 -5 -4 -6 -3 -2 -7
-5 -5 0 -3 2 2 -2 -1 2 -1 -6 1 -4 -1 0 -1 -2 -2 1 1 -1 -0 -3 -5 -6 -8 -7 -6 -5 -6 -5 -9 -5 2 -4 -3 -0 -4 1 -0 -2 -3 -6 -6 0 -3 -11
-3 -0 3 -4 -6 -5 1 -3 -3 -5 -6 -1 0 -2 -2 -2 -2 -0 -0 1 -1 -0 -2 -5 -11 -4 -6 -5 -6 -7 -4 -7 -5 0 -4 -1 7 -5 -2 -3 -7 3 9 -7 -2 16 -4
3 -1 2 1 -0 2 1 2 -5 -6 -8 -10 -2 -1 -0 -2 -2 -1 -1 -0 -1 -2 -2 -4 -4 -7 2 2 -6 -9 -4 -3 -7 -2 -4 -4 -2 22 14 -4 -5 -2 -1 4 2 4 -5
-3 7 1 0 -5 -2 -2 4 3 0 0 -2 -5 -4 -0 -0 -2 -1 -2 -1 -1 -2 -2 -4 -4 -5 -10 -14 -5 -4 -3 -3 -6 -2 -4 -7 2 -10 -2 -1 -3 6 -1 6 -10 4 -0
-3 -1 1 1 -1 -3 -2 -2 -2 -3 -4 -5 -1 -3 -2 -1 -1 -2 -2 -1 -4 -2 -2 -3 -3 2 -1 -5 -5 -8 -5 -1 -6 -5 -5 -1 -10 -2 0 -2 0 1 2 1 6 -3 -5
-1 -1 -2 -2 4 -0 0 0 0 -0 2 -3 -5 -3 -4 -2 -2 -1 -1 -1 -2 -2 -1 -4 -4 -4 -4 -0 -3 -3 -6 -11 1 -3 -3 -4 -5 18 -4 2 -4 3 5 2 6 3 12
-3 2 -0 2 1 1 -3 -0 2 0 -2 2 -2 -4 -2 -5 -3 -2 -1 -1 -1 -1 -1 -2 -3 -0 -3 -2 0 -3 -2 -5 -8 -4 -2 -7 -5 -2 1 2 -0 -1 4 -3 2 -6 2
-0 3 -2 -1 1 1 -2 1 -1 4 2 0 -2 -0 -2 -2 -3 -3 -2 -1 -2 -1 -1 -1 -2 0 -2 -5 -4 -3 -3 -3 3 -0 -5 -1 1 -9 5 3 -1 -0 -1 -1 -4 -4 -1
2 1 1 1 4 1 3 -3 1 2 -6 -2 -5 -1 -2 -2 -1 -2 -2 -2 -4 -2 -3 -2 -4 -3 -1 -1 -5 -5 -2 -3 -5 -4 -2 -2 3 -2 -3 2 0 0 -0 2 -0 -7 -4
1 3 2 2 1 -2 3 2 -1 -3 -0 1 -5 -5 0 -4 -1 -2 -1 -2 -1 -0 -2 -1 -1 0 -1 -1 1 -1 -1 -2 -1 -3 1 -3 2 -3 -5 -4 -4 -2 4 3 -5 -1 -11
2 -1 3 2 -2 -4 1 2 -2 2 -1 1 -1 2 -2 -1 -0 -1 -1 -3 -1 -3 -2 -0 1 -2 -3 -5 -6 2 1 -4 -5 -2 1 -1 2 -4 1 -4 -3 -3 6 2 -2 1 -3
1 -3 -2 1 1 -1 1 -1 2 2 -3 -2 0 -4 -1 -1 -1 -1 -1 -2 -1 -4 -0 0 -3 -3 -1 -2 -3 -3 -3 -2 -1 -3 -3 -4 -3 -4 -3 -2 -4 4 3 0 3 1 -4
0 2 1 -1 2 1 4 -1 2 1 -1 2 1 -4 -2 -1 -0 -0 -1 -1 -1 -1 -5 -2 0 -1 -3 -1 -1 -2 -2 -2 1 -3 -5 -3 -4 -2 -6 -4 -2 -1 14 19 4 3 4
-0 1 2 -4 -2 -1 3 4 -2 2 0 -1 0 1 -2 -1 -2 0 1 1 -2 0 1 -1 -2 -1 -3 -2 -3 -5 -5 -0 -4 -3 -8 -5 -3 -0 -3 -4 -2 -1 5 19 15 8 1
1 -3 2 0 -4 5 -4 2 -1 -1 1 0 -1 2 2 1 -5 -1 -2 1 -3 -2 -3 -1 -0 -2 -3 -3 -2 -4 -7 -5 -5 -6 -4 -2 -2 -4 -3 -6 -3 34 17 -0 2 3 -7
3 -0 -3 1 -0 0 2 -0 4 -0 -2 -2 -1 0 0 0 -4 -2 -2 0 -1 -2 -1 -1 -2 -1 -3 -2 -1 -2 -4 -2 -4 -2 1 -2 -1 -3 -0 -1 -6 -2 -0 -1 5 33 10
-0 -0 -5 1 -1 0 3 1 1 1 -1 -2 -2 0 1 3 -4 -3 -2 -0 0 -2 -0 3 -2 0 -2 -3 -1 -2 -1 -4 -1 -2 1 -1 -5 -1 1 -2 1 1 -2 -1 -3 1 2
-1 1 -2 0 1 -0 1 1 2 5 1 -1 -1 -0 2 4 -0 -1 -2 -1 2 -2 1 0 -1 3 -1 -2 1 1 -3 -2 -2 0 -8 -2 -5 -4 -9 -3 -4 -1 -4 -2 -2 -3 -2
Height
5766 5766 5765 5765 5764 5763 5762 5764 5763 5762 5763 5763 5762 5762 5762 5762 5762 5762 5762 5762 5762 5762 5762 5762 5763 5763 5763 5764 5764 5763 5764 5764 5763 5763 5764 5764 5765 5766 5765 5765 5765 5769 5771 5770 5769 5772 5773
5763 5762 5763 5762 5761 5760 5759 5760 5761 5760 5759 5760 5759 5759 5758 5758 5757 5757 5757 5756 5756 5756 5755 5756 5756 5756 5756 5756 5755 5754 5754 5753 5753 5753 5753 5753 5752 5752 5751 5751 5753 5755 5755 5760 5759 5762 5763
5760 5760 5759 5759 5758 5756 5756 5755 5756 5756 5756 5756 5755 5755 5753 5752 5751 5751 5751 5750 5751 5752 5751 5751 5750 5749 5749 5748 5747 5746 5745 5744 5743 5743 5741 5741 5739 5738 5736 5737 5737 5740 5741 5742 5750 5751 5751
5758 5758 5758 5756 5754 5753 5752 5752 5750 5750 5751 5751 5750 5749 5747 5746 5746 5746 5745 5745 5746 5746 5746 5745 5744 5743 5742 5741 5739 5737 5735 5734 5731 5727 5725 5722 5721 5720 5719 5719 5721 5722 5721 5726 5741 5736 5735
5754 5755 5754 5752 5752 5752 5752 5750 5749 5748 5746 5746 5746 5745 5743 5742 5742 5741 5741 5740 5740 5740 5740 5739 5738 5736 5735 5733 5731 5728 5725 5721 5717 5713 5709 5707 5704 5702 5700 5698 5700 5705 5702 5707 5715 5718 5717
5750 5750 5749 5750 5749 5749 5749 5747 5747 5745 5744 5743 5743 5742 5740 5738 5738 5737 5737 5736 5735 5734 5733 5732 5730 5730 5727 5724 5721 5717 5711 5705 5700 5695 5690 5688 5685 5682 5680 5678 5679 5682 5681 5685 5692 5704 5696
5745 5746 5746 5747 5745 5747 5747 5745 5744 5744 5742 5741 5740 5739 5738 5736 5734 5733 5732 5731 5731 5730 5727 5726 5724 5721 5718 5715 5709 5703 5696 5690 5685 5678 5674 5667 5667 5664 5660 5657 5656 5656 5658 5664 5670 5680 5674
5742 5743 5744 5745 5744 5743 5744 5742 5743 5741 5739 5738 5737 5736 5735 5732 5730 5729 5728 5727 5725 5724 5723 5720 5717 5714 5709 5703 5697 5690 5685 5679 5671 5665 5657 5653 5648 5644 5641 5640 5639 5638 5638 5642 5648 5654 5652
5737 5739 5740 5740 5740 5739 5739 5739 5738 5738 5736 5734 5734 5732 5731 5730 5727 5726 5724 5722 5720 5718 5716 5713 5708 5704 5700 5694 5687 5680 5673 5665 5657 5650 5643 5639 5637 5631 5630 5629 5627 5627 5627 5629 5630 5633 5633
5732 5734 5736 5737 5736 5736 5736 5735 5734 5733 5731 5730 5730 5729 5728 5726 5725 5722 5720 5718 5715 5712 5709 5707 5702 5698 5691 5683 5676 5667 5660 5652 5643 5638 5633 5630 5626 5623 5620 5619 5618 5617 5620 5618 5618 5620 5621
5726 5728 5730 5731 5732 5732 5732 5731 5728 5728 5728 5726 5726 5725 5724 5722 5721 5719 5717 5713 5709 5706 5703 5700 5695 5687 5680 5674 5664 5652 5647 5641 5634 5629 5625 5623 5618 5615 5613 5612 5610 5610 5609 5609 5609 5609 5609
5719 5723 5725 5724 5725 5726 5727 5727 5727 5725 5724 5723 5722 5722 5720 5719 5717 5715 5710 5707 5704 5702 5696 5692 5686 5678 5670 5663 5655 5647 5638 5631 5627 5622 5616 5612 5610 5608 5606 5605 5605 5606 5605 5604 5602 5601 5600
5714 5716 5718 5719 5720 5722 5721 5723 5721 5722 5721 5720 5719 5718 5717 5715 5713 5709 5705 5702 5699 5694 5689 5685 5677 5669 5662 5656 5648 5639 5632 5624 5620 5615 5610 5607 5606 5602 5600 5598 5600 5602 5600 5598 5598 5598 5597
5706 5710 5713 5713 5714 5716 5717 5718 5717 5715 5716 5714 5716 5714 5712 5709 5707 5704 5701 5697 5692 5687 5682 5677 5671 5663 5658 5651 5642 5633 5625 5618 5612 5607 5603 5600 5601 5599 5595 5596 5595 5596 5596 5595 5591 5591 5591
5701 5702 5706 5708 5708 5709 5710 5711 5710 5711 5709 5710 5709 5709 5707 5704 5701 5698 5696 5691 5686 5681 5676 5671 5664 5657 5649 5641 5635 5627 5618 5612 5605 5601 5598 5594 5596 5592 5592 5591 5592 5592 5591 5590 5586 5587 5586
5693 5696 5700 5702 5703 5705 5704 5705 5706 5705 5705 5703 5703 5702 5701 5698 5695 5692 5690 5686 5681 5676 5670 5665 5659 5653 5645 5637 5629 5620 5612 5606 5599 5595 5591 5590 5588 5588 5587 5585 5586 5585 5585 5586 5583 5582 5580
5686 5690 5693 5695 5696 5699 5698 5698 5699 5700 5699 5698 5698 5696 5695 5692 5690 5687 5684 5680 5676 5671 5665 5660 5653 5646 5638 5632 5624 5615 5607 5600 5595 5589 5586 5583 5583 5585 5581 5580 5579 5580 5579 5578 5576 5577 5575
5679 5682 5686 5689 5690 5692 5693 5691 5692 5692 5691 5691 5691 5690 5687 5685 5685 5681 5677 5674 5671 5665 5659 5654 5648 5641 5633 5625 5619 5611 5603 5595 5588 5584 5581 5578 5576 5574 5575 5574 5572 5573 5571 5569 5569 5569 5568
5673 5675 5677 5681 5683 5685 5687 5686 5686 5686 5685 5684 5683 5682 5681 5678 5677 5674 5671 5668 5664 5659 5653 5647 5641 5634 5628 5621 5614 5606 5599 5592 5586 5579 5575 5573 5568 5565 5567 5569 5566 5564 5563 5563 5560 5560 5563
5664 5668 5670 5672 5675 5678 5679 5679 5679 5679 5679 5678 5677 5675 5673 5671 5669 5667 5664 5661 5658 5653 5648 5642 5636 5629 5623 5616 5608 5601 5594 5588 5580 5574 5569 5564 5559 5555 5555 5556 5557 5555 5556 5556 5552 5552 5555
5655 5659 5662 5664 5666 5669 5669 5671 5672 5672 5671 5671 5670 5667 5666 5664 5662 5660 5657 5654 5651 5647 5642 5636 5630 5623 5616 5609 5604 5596 5590 5583 5577 5569 5563 5556 5552 5546 5543 5543 5542 5542 5545 5546 5542 5547 5545
5648 5650 5653 5655 5657 5661 5661 5662 5661 5663 5662 5662 5661 5661 5658 5656 5653 5652 5650 5647 5644 5640 5635 5629 5624 5617 5611 5604 5597 5592 5585 5578 5572 5565 5558 5552 5547 5540 5539 5534 5532 5531 5535 5534 5535 5541 5544
5641 5642 5644 5646 5649 5652 5654 5655 5654 5654 5655 5654 5652 5652 5652 5649 5645 5644 5641 5640 5637 5633 5629 5623 5618 5612 5606 5600 5592 5586 5580 5573 5567 5561 5554 5547 5542 5537 5535 5531 5527 5528 5527 5529 5534 5539 5542
5631 5634 5637 5639 5640 5642 5644 5646 5646 5647 5646 5646 5645 5643 5643 5641 5638 5635 5633 5632 5630 5627 5622 5617 5612 5606 5601 5594 5588 5581 5576 5569 5563 5556 5550 5544 5540 5536 5532 5528 5524 5524 5527 5529 5533 5535 5537
5623 5625 5629 5631 5633 5635 5635 5637 5638 5639 5638 5637 5636 5636 5635 5633 5630 5627 5625 5623 5621 5618 5614 5609 5605 5600 5593 5588 5583 5576 5571 5565 5558 5552 5547 5542 5539 5536 5533 5527 5523 5524 5527 5529 5530 5530 5530
5614 5617 5620 5621 5624 5627 5628 5628 5629 5629 5629 5628 5628 5627 5627 5626 5623 5619 5616 5614 5612 5609 5606 5601 5597 5592 5587 5582 5577 5571 5565 5559 5553 5549 5545 5542 5539 5536 5533 5530 5527 5526 5525 5525 5526 5529 5528
5605 5608 5611 5612 5616 5617 5618 5619 5620 5620 5620 5621 5620 5619 5619 5617 5615 5612 5609 5606 5604 5600 5597 5594 5590 5586 5581 5577 5571 5566 5561 5555 5549 5546 5542 5539 5537 5534 5532 5529 5529 5524 5522 5523 5528 5528 5521
5596 5599 5601 5604 5606 5608 5609 5610 5610 5611 5611 5612 5611 5610 5610 5609 5607 5604 5601 5598 5596 5593 5590 5587 5583 5580 5575 5571 5566 5561 5556 5550 5545 5541 5538 5536 5534 5532 5530 5527 5526 5523 5522 5522 5520 5517 5515
5586 5589 5591 5594 5596 5598 5599 5600 5600 5600 5600 5601 5600 5600 5600 5599 5598 5596 5593 5591 5588 5584 5582 5578 5575 5571 5567 5564 5560 5554 5550 5545 5540 5538 5532 5531 5530 5528 5526 5524 5521 5518 5516 5515 5514 5513 5512